Wind_Speed
36 36 34 31 36 38 37 36 38 34 36 38 37 39 45 47 47 46 48 49 47 47 47 45 44 45 46 48 48 44 43 42 39 39 37 37 38 38 35 37 34 37 39
40 41 42 39 35 42 43 41 39 38 36 37 43 48 47 47 52 54 51 51 51 53 50 47 45 46 47 50 50 48 48 45 50 41 42 37 39 37 35 32 38 40 39
46 49 49 46 42 42 47 45 46 44 40 44 47 47 53 54 52 55 54 53 54 56 51 49 46 45 46 50 51 52 52 47 49 51 42 39 36 39 36 39 37 37 40
54 54 57 57 51 49 49 54 60 52 50 52 48 50 48 57 54 54 57 55 54 55 55 52 48 47 47 49 48 51 53 57 45 45 39 43 40 38 35 35 37 40 41
56 56 59 62 64 60 60 60 61 66 60 60 59 58 56 57 57 59 59 60 56 58 59 54 49 48 48 47 48 50 49 54 58 50 40 45 43 38 37 35 38 38 41
68 67 62 62 68 71 71 70 69 72 74 69 69 67 65 60 62 61 58 59 57 56 57 53 50 47 47 48 49 51 53 54 52 40 42 45 41 37 39 37 38 38 35
76 79 78 76 75 76 78 78 83 80 81 80 80 75 74 68 62 63 62 58 58 57 56 55 55 51 48 49 48 50 56 62 48 46 44 46 44 40 44 44 41 38 35
81 84 85 87 87 84 84 87 85 88 93 91 91 86 80 77 61 63 66 62 60 60 54 56 60 55 44 46 53 51 57 56 50 40 43 48 47 45 36 44 41 38 34
87 90 92 93 93 94 95 92 93 90 92 95 91 81 65 61 57 59 65 68 65 61 65 62 63 57 47 54 54 51 58 63 51 42 41 43 41 32 40 41 39 38 34
87 86 83 82 83 82 84 87 93 93 90 78 64 51 56 57 54 56 61 66 67 67 63 63 64 60 49 54 59 60 62 71 63 60 47 51 46 47 43 38 39 37 35
77 79 77 73 76 80 75 73 76 65 55 63 64 51 46 58 54 57 57 59 63 65 68 61 66 52 56 61 63 60 66 68 51 43 39 45 47 40 41 40 39 38 37
56 52 55 52 64 61 65 73 74 70 62 42 43 47 48 48 50 56 55 57 58 60 62 70 57 55 60 65 77 61 55 62 59 43 48 47 40 35 38 38 38 38 35
50 53 43 49 55 57 34 29 41 41 45 45 47 49 49 47 46 50 51 52 54 55 57 58 54 63 53 63 62 61 57 51 53 40 45 39 37 37 37 38 36 36 34
46 46 57 54 38 42 52 23 18 15 33 45 34 45 48 46 49 51 51 53 56 60 57 55 55 55 51 49 43 34 32 34 32 34 36 37 35 36 38 35 35 34 32
54 55 52 46 41 35 26 25 29 24 17 34 31 41 44 41 44 45 45 48 49 49 49 47 47 51 53 52 31 27 28 33 34 36 35 38 38 37 39 36 34 33 32
50 49 47 44 37 40 26 23 24 26 20 8 32 38 38 35 41 41 42 42 44 41 45 43 52 50 51 40 37 33 28 31 34 38 38 38 33 32 36 36 35 33 30
48 42 42 32 24 30 30 25 20 22 28 25 13 34 36 48 42 38 41 39 39 40 39 49 42 47 41 33 27 24 26 33 34 36 37 35 36 37 38 36 36 33 29
38 40 43 33 27 23 30 28 23 17 19 21 20 2 42 50 42 37 45 43 43 42 45 46 41 40 29 22 20 23 25 24 31 34 35 35 33 34 36 36 38 32 31
36 35 40 37 31 31 27 24 24 21 14 13 15 16 1 12 14 11 27 29 30 27 31 24 17 23 26 20 26 26 26 28 35 34 35 30 30 33 32 38 42 35 31
35 32 32 38 37 35 28 22 22 20 18 15 15 15 18 21 10 11 10 13 7 12 19 25 19 21 25 29 28 27 30 34 38 38 35 30 31 31 31 37 37 34 31
29 27 25 28 27 36 29 28 22 21 19 19 17 27 23 24 19 22 20 18 22 24 25 28 26 26 29 30 29 29 32 35 35 35 35 34 33 31 30 34 38 34 32
28 22 22 27 28 29 37 35 28 25 24 23 26 29 30 29 31 29 27 27 22 23 24 25 28 30 29 29 30 32 33 33 33 34 36 35 33 33 36 40 39 34 34
19 18 19 29 24 32 34 36 32 24 22 26 29 30 33 34 35 35 32 29 29 26 27 30 29 30 29 30 30 31 31 34 36 37 40 36 36 34 37 43 38 36 36
13 16 12 16 24 14 26 30 35 29 31 25 30 39 41 37 35 34 32 27 25 25 27 28 31 31 31 31 29 30 29 34 40 44 42 42 42 40 40 42 37 35 36
15 14 9 14 13 17 18 15 31 22 30 48 42 43 36 37 30 26 24 25 24 20 21 23 27 28 27 29 29 28 31 40 44 41 42 43 45 43 42 43 38 35 38
12 12 12 8 4 4 6 9 22 23 24 26 38 34 27 26 23 23 23 23 22 23 23 22 23 24 23 26 26 28 31 44 46 42 42 45 46 44 44 44 42 39 42
Wind_Direction
265 269 261 263 270 277 285 282 284 292 295 298 300 292 288 283 276 271 272 274 273 270 266 265 262 263 262 259 260 260 260 264 268 270 274 278 276 280 285 282 278 281 285
266 265 263 258 258 266 272 277 277 277 279 283 296 297 285 281 278 274 270 270 271 270 270 267 263 263 263 263 262 261 259 263 265 266 271 272 275 279 283 287 285 285 288
269 266 265 263 257 255 263 266 269 275 267 278 282 287 296 280 273 274 271 270 270 271 270 266 263 262 261 262 264 264 262 260 260 261 272 268 276 280 281 283 286 285 281
272 267 264 262 261 257 257 260 269 266 269 270 275 278 286 282 267 262 263 262 261 264 264 267 264 262 260 262 265 268 264 258 260 259 263 269 278 277 283 282 289 283 281
277 271 265 265 263 264 258 257 258 263 265 266 268 270 269 273 262 256 257 261 258 261 265 267 265 264 263 264 265 265 262 263 256 251 263 269 280 275 278 286 283 283 283
279 279 276 271 264 265 261 261 259 261 264 264 266 267 267 266 263 255 252 256 258 258 262 264 262 260 262 264 265 266 266 260 243 261 270 266 269 276 273 280 281 282 279
288 288 285 283 282 276 270 265 263 262 262 264 267 267 265 262 260 252 248 249 253 256 259 259 260 252 253 262 270 274 284 256 249 258 263 264 266 276 279 278 277 276 278
286 285 283 281 279 277 274 273 269 265 264 264 265 264 259 259 256 255 248 249 251 252 255 260 263 244 255 259 262 260 279 260 252 254 257 259 268 269 276 272 274 274 276
283 282 281 279 277 277 276 272 268 268 262 261 265 262 262 255 252 249 249 248 248 252 253 257 259 248 260 263 269 270 269 255 249 245 252 261 263 265 274 262 269 269 272
281 280 280 279 277 276 273 269 261 260 263 267 268 266 257 249 244 248 250 247 248 248 255 260 259 263 263 253 269 269 267 249 249 251 256 256 256 271 264 261 265 266 270
279 277 276 271 273 275 272 271 265 275 281 277 273 259 250 244 249 247 250 247 246 247 250 256 264 267 268 269 270 272 263 255 246 245 254 265 265 255 256 262 261 263 269
278 284 285 278 273 272 276 272 274 275 274 267 259 254 241 241 241 239 243 245 248 246 253 243 259 264 268 263 276 267 269 262 245 247 257 251 249 247 253 252 257 264 267
296 274 276 274 274 265 282 251 254 259 261 255 253 234 227 232 235 238 240 240 240 242 245 251 257 254 272 273 268 261 262 265 243 235 243 246 242 249 246 251 258 264 264
289 288 269 280 293 277 269 273 247 315 229 252 239 227 222 227 232 232 234 234 235 238 244 249 252 260 265 280 264 239 229 225 225 232 242 246 248 252 254 255 258 258 257
282 282 271 275 278 297 290 307 305 302 336 222 237 224 225 234 233 231 236 235 235 240 247 253 254 256 262 264 240 235 234 234 239 240 244 252 253 256 257 254 253 253 253
280 280 278 273 282 280 284 305 317 312 322 338 201 226 227 231 228 231 234 235 236 235 246 248 253 264 260 250 240 239 237 247 246 247 245 250 255 257 255 253 252 251 250
277 273 267 247 252 267 278 287 304 317 286 319 195 226 241 215 220 222 239 242 239 241 249 255 245 257 231 225 229 234 237 246 253 253 255 255 257 256 253 250 252 246 250
276 270 253 239 229 241 262 273 284 299 308 323 313 301 225 236 241 233 233 234 241 244 251 248 223 223 233 224 248 255 257 259 260 258 258 254 250 248 246 248 248 240 249
285 275 256 243 225 237 237 249 266 279 283 304 310 304 210 178 203 187 199 194 200 210 216 211 220 232 213 224 237 244 253 261 262 263 259 248 246 247 251 256 246 234 243
297 286 273 248 241 234 232 239 252 256 271 266 269 264 278 276 256 256 259 256 243 223 239 225 232 234 240 246 245 252 261 264 263 263 258 251 248 249 256 261 245 239 244
293 289 270 250 266 239 230 229 239 236 239 253 251 253 256 255 240 231 234 231 231 237 235 231 240 247 249 247 249 254 259 259 262 264 256 245 245 248 258 257 244 242 250
300 283 267 258 265 254 236 233 228 231 232 242 254 250 252 251 258 249 238 242 246 252 252 250 252 257 255 256 260 261 257 257 257 260 252 240 246 255 259 261 247 246 253
290 281 265 252 257 257 256 236 226 238 231 236 238 239 249 257 250 246 247 242 248 246 252 261 262 259 260 262 257 253 254 257 257 257 245 237 246 255 263 261 246 250 258
312 293 280 247 242 271 241 248 231 226 224 229 240 240 248 255 250 247 250 246 243 247 251 257 262 265 266 264 262 261 261 258 251 249 241 244 252 255 263 257 249 255 262
322 321 339 242 251 282 264 246 234 257 214 226 228 233 247 237 233 234 237 241 244 245 251 258 261 261 261 259 262 265 265 252 244 246 244 248 252 256 261 253 261 265 270
322 326 323 353 295 202 220 205 187 169 177 190 199 200 211 215 218 224 229 232 236 245 249 256 264 269 273 270 271 272 271 246 241 249 243 245 251 257 262 266 265 270 273
Height
5768 5767 5765 5763 5762 5762 5762 5761 5760 5757 5754 5753 5753 5753 5754 5752 5751 5749 5748 5748 5749 5750 5750 5751 5752 5751 5751 5751 5751 5752 5752 5752 5753 5753 5754 5753 5752 5751 5750 5749 5749 5747 5745
5760 5757 5754 5752 5752 5751 5750 5751 5748 5746 5744 5741 5739 5739 5739 5739 5740 5738 5738 5737 5738 5738 5740 5741 5741 5741 5741 5741 5741 5742 5742 5743 5742 5743 5744 5744 5743 5743 5741 5740 5739 5738 5736
5749 5747 5745 5742 5740 5738 5736 5736 5736 5735 5733 5730 5727 5726 5728 5725 5724 5726 5727 5726 5726 5726 5728 5729 5729 5731 5731 5730 5730 5730 5730 5731 5732 5733 5734 5733 5734 5733 5733 5731 5729 5727 5725
5737 5735 5732 5730 5727 5725 5722 5721 5719 5719 5720 5718 5716 5714 5713 5715 5714 5712 5712 5713 5713 5713 5714 5717 5718 5719 5719 5719 5719 5719 5719 5718 5721 5723 5724 5723 5724 5724 5723 5722 5720 5718 5716
5722 5720 5718 5717 5714 5712 5709 5705 5702 5702 5704 5702 5701 5698 5699 5699 5699 5699 5698 5700 5700 5701 5701 5704 5707 5708 5707 5707 5708 5708 5708 5709 5708 5710 5712 5712 5714 5714 5713 5712 5711 5709 5707
5703 5701 5699 5698 5698 5695 5692 5690 5685 5681 5683 5684 5683 5683 5683 5682 5684 5686 5686 5686 5688 5689 5688 5691 5693 5695 5696 5696 5696 5696 5695 5694 5694 5697 5700 5701 5703 5703 5703 5702 5701 5700 5698
5682 5679 5678 5676 5674 5674 5672 5668 5665 5663 5659 5660 5662 5665 5666 5665 5667 5672 5673 5671 5673 5676 5677 5677 5679 5681 5682 5683 5682 5682 5681 5681 5682 5685 5687 5690 5691 5692 5692 5693 5691 5690 5689
5661 5658 5654 5651 5650 5648 5644 5642 5640 5639 5633 5638 5637 5638 5643 5645 5649 5655 5658 5658 5658 5661 5663 5664 5662 5663 5668 5668 5669 5667 5672 5671 5670 5671 5674 5677 5679 5681 5681 5681 5681 5681 5679
5640 5634 5628 5623 5619 5619 5618 5614 5611 5608 5605 5607 5609 5611 5617 5624 5631 5637 5641 5643 5642 5646 5649 5651 5652 5647 5655 5654 5655 5659 5659 5659 5660 5662 5663 5664 5668 5669 5670 5670 5670 5670 5669
5607 5607 5601 5596 5591 5588 5584 5580 5577 5575 5576 5579 5588 5594 5601 5606 5612 5617 5623 5627 5628 5632 5635 5637 5638 5639 5642 5641 5642 5646 5645 5643 5645 5648 5653 5652 5656 5657 5657 5659 5659 5659 5659
5580 5579 5580 5578 5572 5566 5559 5555 5555 5555 5557 5563 5569 5574 5580 5587 5594 5599 5603 5610 5616 5619 5621 5620 5622 5622 5623 5623 5629 5626 5629 5629 5634 5638 5639 5641 5643 5643 5646 5648 5648 5649 5649
5565 5561 5559 5557 5553 5549 5544 5540 5542 5539 5542 5545 5549 5556 5561 5566 5572 5579 5586 5593 5600 5604 5608 5605 5613 5614 5612 5618 5615 5615 5618 5619 5620 5625 5628 5626 5628 5631 5634 5636 5637 5638 5639
5547 5548 5545 5541 5537 5536 5533 5526 5523 5522 5524 5527 5529 5533 5542 5548 5556 5563 5570 5577 5584 5589 5594 5596 5601 5603 5601 5604 5600 5600 5603 5602 5608 5611 5613 5615 5618 5621 5623 5625 5627 5629 5628
5534 5531 5530 5528 5526 5523 5521 5515 5515 5511 5509 5513 5515 5520 5527 5532 5539 5547 5554 5562 5569 5575 5581 5586 5589 5591 5594 5590 5592 5586 5589 5595 5596 5600 5605 5608 5610 5612 5614 5616 5617 5618 5618
5520 5517 5516 5515 5515 5513 5509 5508 5504 5500 5499 5501 5505 5511 5516 5522 5529 5537 5544 5551 5558 5564 5570 5574 5577 5579 5580 5582 5583 5585 5586 5588 5591 5594 5596 5600 5602 5603 5606 5607 5608 5609 5611
5504 5502 5502 5502 5503 5507 5502 5500 5499 5492 5490 5486 5495 5505 5506 5513 5520 5527 5534 5541 5547 5554 5559 5559 5566 5568 5569 5573 5574 5575 5577 5583 5585 5587 5589 5592 5592 5595 5598 5599 5599 5601 5602
5489 5487 5486 5490 5493 5497 5496 5493 5496 5491 5489 5488 5489 5498 5493 5492 5504 5517 5526 5531 5537 5543 5547 5549 5552 5557 5556 5559 5563 5566 5568 5572 5576 5578 5581 5582 5583 5585 5588 5589 5590 5592 5594
5477 5474 5472 5477 5481 5486 5488 5488 5489 5490 5488 5485 5489 5490 5497 5498 5504 5511 5516 5522 5527 5531 5535 5540 5539 5545 5546 5550 5555 5558 5562 5564 5569 5572 5572 5571 5572 5575 5577 5578 5581 5582 5584
5468 5465 5464 5467 5470 5474 5478 5481 5482 5486 5485 5485 5487 5491 5490 5492 5498 5496 5504 5508 5512 5519 5522 5528 5532 5536 5538 5542 5548 5550 5553 5553 5559 5562 5563 5564 5565 5566 5568 5569 5570 5571 5573
5458 5456 5456 5459 5461 5464 5467 5473 5477 5480 5479 5480 5484 5487 5489 5494 5495 5497 5500 5503 5507 5512 5518 5522 5525 5527 5531 5537 5539 5542 5546 5548 5551 5553 5553 5553 5556 5558 5558 5560 5561 5562 5563
5454 5450 5449 5453 5454 5456 5460 5464 5469 5472 5473 5476 5479 5483 5484 5488 5491 5495 5497 5499 5502 5508 5511 5515 5517 5521 5525 5529 5532 5533 5536 5539 5540 5543 5544 5545 5547 5548 5551 5551 5552 5553 5554
5449 5445 5445 5447 5448 5449 5453 5457 5460 5464 5465 5469 5472 5475 5479 5482 5485 5488 5490 5495 5498 5501 5504 5507 5511 5515 5518 5520 5522 5524 5526 5528 5531 5532 5532 5534 5536 5538 5542 5543 5543 5543 5543
5444 5441 5438 5439 5441 5443 5445 5448 5453 5457 5460 5463 5469 5468 5472 5476 5479 5483 5485 5489 5491 5495 5497 5500 5504 5507 5509 5511 5513 5516 5517 5519 5519 5521 5523 5525 5527 5528 5530 5532 5532 5533 5533
5441 5438 5435 5434 5435 5436 5438 5441 5443 5443 5451 5455 5461 5464 5467 5470 5471 5474 5478 5481 5485 5487 5490 5492 5494 5496 5499 5501 5503 5505 5505 5505 5508 5510 5511 5514 5516 5516 5519 5520 5520 5521 5520
5439 5436 5432 5431 5430 5429 5429 5431 5433 5439 5440 5444 5453 5457 5458 5461 5465 5468 5470 5473 5476 5479 5482 5485 5488 5489 5490 5491 5492 5493 5495 5496 5497 5498 5500 5502 5504 5506 5508 5510 5508 5508 5508
5437 5435 5431 5428 5427 5427 5427 5427 5430 5430 5433 5436 5444 5446 5447 5452 5456 5461 5464 5466 5470 5473 5476 5478 5480 5482 5481 5481 5481 5483 5482 5485 5486 5488 5490 5492 5493 5496 5496 5497 5496 5495 5495